| time (UTC) | temp C | wind direction | speed KPH | gust KPH | rain 1hr cm | rain 24hr cm | rain mn cm | humidity % | barometer mb |
| 20260510192208 | 9 | 38 | 8.0 | 12.9 | 0.00 | 0.00 | 0.00 | 54 | 1031.4 |
| 20260510191704 | 9 | 10 | 16.1 | 22.5 | 0.00 | 0.00 | 0.00 | 56 | 1031.5 |
| 20260510191201 | 9 | 77 | 6.4 | 12.9 | 0.00 | 0.00 | 0.00 | 54 | 1031.9 |
| 20260510190658 | 10 | 310 | 1.6 | 20.9 | 0.00 | 0.00 | 0.00 | 57 | 1031.8 |
| 20260510190156 | 9 | 343 | 4.8 | 12.9 | 0.00 | 0.00 | 0.00 | 58 | 1031.5 |
| 20260510185652 | 8 | 37 | 6.4 | 12.9 | 0.00 | 0.00 | 0.00 | 56 | 1031.4 |
| 20260510185150 | 9 | 47 | 9.7 | 12.9 | 0.00 | 0.00 | 0.00 | 55 | 1031.5 |
| 20260510184646 | 8 | 274 | 6.4 | 14.5 | 0.00 | 0.00 | 0.00 | 60 | 1031.6 |
| 20260510184143 | 9 | 339 | 8.0 | 20.9 | 0.00 | 0.00 | 0.00 | 61 | 1031.6 |
| 20260510183638 | 8 | 55 | 11.3 | 14.5 | 0.00 | 0.00 | 0.00 | 57 | 1031.9 |
| 20260510183133 | 8 | 312 | 3.2 | 14.5 | 0.00 | 0.00 | 0.00 | 61 | 1031.5 |
| 20260510182630 | 8 | 331 | 4.8 | 11.3 | 0.00 | 0.00 | 0.00 | 59 | 1031.6 |
| 20260510182126 | 9 | 3 | 11.3 | 17.7 | 0.00 | 0.00 | 0.00 | 60 | 1031.5 |
| 20260510181623 | 8 | 294 | 11.3 | 14.5 | 0.00 | 0.00 | 0.00 | 61 | 1031.8 |
| 20260510181120 | 9 | 53 | 11.3 | 12.9 | 0.00 | 0.00 | 0.00 | 59 | 1031.8 |
| 20260510180616 | 8 | 290 | 6.4 | 16.1 | 0.00 | 0.00 | 0.00 | 61 | 1031.9 |
| 20260510180114 | 7 | 282 | 6.4 | 9.7 | 0.00 | 0.00 | 0.00 | 63 | 1031.6 |
| 20260510175609 | 8 | 346 | 9.7 | 16.1 | 0.00 | 0.00 | 0.00 | 61 | 1031.6 |
| 20260510175105 | 9 | 26 | 9.7 | 17.7 | 0.00 | 0.00 | 0.00 | 61 | 1031.8 |
| 20260510174603 | 7 | 312 | 1.6 | 17.7 | 0.00 | 0.00 | 0.00 | 63 | 1031.6 |
| 20260510174100 | 7 | 58 | 3.2 | 11.3 | 0.00 | 0.00 | 0.00 | 63 | 1031.6 |
| 20260510173555 | 7 | 291 | 3.2 | 9.7 | 0.00 | 0.00 | 0.00 | 62 | 1031.8 |
| 20260510173052 | 7 | 349 | 16.1 | 17.7 | 0.00 | 0.00 | 0.00 | 61 | 1031.6 |
| 20260510172548 | 7 | 294 | 9.7 | 12.9 | 0.00 | 0.00 | 0.00 | 64 | 1031.8 |
| 20260510172044 | 7 | 310 | 6.4 | 11.3 | 0.00 | 0.00 | 0.00 | 63 | 1031.6 |
| 20260510171541 | 7 | 36 | 6.4 | 12.9 | 0.00 | 0.00 | 0.00 | 63 | 1031.8 |
| 20260510171039 | 7 | 3 | 3.2 | 11.3 | 0.00 | 0.00 | 0.00 | 60 | 1031.9 |
| 20260510170534 | 8 | 68 | 4.8 | 17.7 | 0.00 | 0.00 | 0.00 | 59 | 1031.5 |
| 20260510170031 | 8 | 35 | 8.0 | 11.3 | 0.00 | 0.00 | 0.00 | 59 | 1031.8 |
| 20260510165526 | 8 | 277 | 1.6 | 16.1 | 0.00 | 0.00 | 0.00 | 60 | 1031.8 |
| 20260510165018 | 8 | 357 | 9.7 | 16.1 | 0.00 | 0.00 | 0.00 | 59 | 1031.5 |
| 20260510164515 | 7 | 353 | 4.8 | 12.9 | 0.00 | 0.00 | 0.00 | 59 | 1031.6 |
| 20260510164011 | 7 | 298 | 9.7 | 12.9 | 0.00 | 0.00 | 0.00 | 55 | 1031.6 |
| 20260510163507 | 7 | 296 | 4.8 | 6.4 | 0.00 | 0.00 | 0.00 | 52 | 1031.5 |
| 20260510163003 | 7 | 332 | 6.4 | 11.3 | 0.00 | 0.00 | 0.00 | 53 | 1031.4 |
| 20260510162458 | 7 | 36 | 9.7 | 12.9 | 0.00 | 0.00 | 0.00 | 55 | 1031.8 |
| 20260510161955 | 7 | 347 | 6.4 | 11.3 | 0.00 | 0.00 | 0.00 | 55 | 1031.4 |
| 20260510161450 | 7 | 347 | 4.8 | 12.9 | 0.00 | 0.00 | 0.00 | 53 | 1031.4 |
| 20260510160947 | 7 | 51 | 6.4 | 16.1 | 0.00 | 0.00 | 0.00 | 53 | 1031.2 |
| 20260510160444 | 7 | 334 | 8.0 | 9.7 | 0.00 | 0.00 | 0.00 | 52 | 1031.5 |
| 20260510155942 | 8 | 261 | 3.2 | 6.4 | 0.00 | 0.00 | 0.00 | 48 | 1031.2 |
| 20260510155435 | 7 | 27 | 8.0 | 11.3 | 0.00 | 0.00 | 0.00 | 49 | 1031.0 |
| 20260510154931 | 7 | 357 | 6.4 | 12.9 | 0.00 | 0.00 | 0.00 | 47 | 1031.1 |
| 20260510154427 | 8 | 35 | 6.4 | 14.5 | 0.00 | 0.00 | 0.00 | 46 | 1031.2 |
| 20260510153925 | 7 | 276 | 6.4 | 9.7 | 0.00 | 0.00 | 0.00 | 52 | 1031.0 |
| 20260510153422 | 6 | 248 | 8.0 | 9.7 | 0.00 | 0.00 | 0.00 | 50 | 1031.4 |
| 20260510152919 | 7 | 264 | 0.0 | 3.2 | 0.00 | 0.00 | 0.00 | 50 | 1031.1 |
| 20260510152416 | 7 | 44 | 6.4 | 6.4 | 0.00 | 0.00 | 0.00 | 54 | 1031.2 |
| 20260510151912 | 6 | 277 | 4.8 | 6.4 | 0.00 | 0.00 | 0.00 | 61 | 1031.2 |
| 20260510151410 | 6 | 257 | 4.8 | 9.7 | 0.00 | 0.00 | 0.00 | 59 | 1031.0 |
| 20260510150906 | 6 | 30 | 4.8 | 6.4 | 0.00 | 0.00 | 0.00 | 64 | 1031.2 |
| 20260510150402 | 6 | 304 | 1.6 | 6.4 | 0.00 | 0.00 | 0.00 | 66 | 1031.0 |
| 20260510145858 | 6 | 306 | 1.6 | 4.8 | 0.00 | 0.00 | 0.00 | 65 | 1030.8 |
| 20260510145355 | 5 | 299 | 0.0 | 9.7 | 0.00 | 0.00 | 0.00 | 70 | 1030.7 |
| 20260510144852 | 6 | 288 | 0.0 | 3.2 | 0.00 | 0.00 | 0.00 | 68 | 1031.0 |
| 20260510144349 | 5 | 254 | 1.6 | 4.8 | 0.00 | 0.00 | 0.00 | 70 | 1030.8 |
| 20260510143849 | 6 | 344 | 3.2 | 3.2 | 0.00 | 0.00 | 0.00 | 69 | 1030.7 |
| 20260510143345 | 5 | 267 | 0.0 | 3.2 | 0.00 | 0.00 | 0.00 | 75 | 1030.7 |
| 20260510142842 | 4 | 341 | 6.4 | 11.3 | 0.00 | 0.00 | 0.00 | 79 | 1031.0 |
| 20260510142338 | 4 | 275 | 1.6 | 3.2 | 0.00 | 0.00 | 0.00 | 78 | 1031.0 |
| 20260510141835 | 4 | 5 | 3.2 | 6.4 | 0.00 | 0.00 | 0.00 | 77 | 1030.8 |
| 20260510141333 | 4 | 294 | 4.8 | 6.4 | 0.00 | 0.00 | 0.00 | 72 | 1030.7 |
| 20260510140830 | 3 | 255 | 0.0 | 4.8 | 0.00 | 0.00 | 0.00 | 77 | 1030.7 |
| 20260510140320 | 2 | 270 | 0.0 | 3.2 | 0.00 | 0.00 | 0.00 | 81 | 1031.0 |
| 20260510135814 | 2 | 258 | 0.0 | 0.0 | 0.00 | 0.00 | 0.00 | 81 | 1030.7 |
| 20260510135310 | 1 | 266 | 0.0 | 1.6 | 0.00 | 0.00 | 0.00 | 87 | 1030.7 |
| 20260510134808 | 1 | 274 | 1.6 | 4.8 | 0.00 | 0.00 | 0.00 | 87 | 1031.0 |
| 20260510134304 | 2 | 10 | 1.6 | 1.6 | 0.00 | 0.00 | 0.00 | 87 | 1030.7 |
| 20260510133800 | 2 | 273 | 0.0 | 1.6 | 0.00 | 0.00 | 0.00 | 88 | 1030.7 |
| 20260510133256 | 2 | 303 | 3.2 | 6.4 | 0.00 | 0.00 | 0.00 | 87 | 1030.8 |
| 20260510132752 | 2 | 284 | 0.0 | 1.6 | 0.00 | 0.00 | 0.00 | 86 | 1030.7 |
| 20260510132251 | 2 | 282 | 1.6 | 3.2 | 0.00 | 0.00 | 0.00 | 87 | 1030.8 |
| 20260510131747 | 2 | 264 | 0.0 | 1.6 | 0.00 | 0.00 | 0.00 | 89 | 1030.8 |
| 20260510131245 | 1 | 284 | 3.2 | 4.8 | 0.00 | 0.00 | 0.00 | 91 | 1030.8 |
| 20260510130741 | 1 | 271 | 1.6 | 3.2 | 0.00 | 0.00 | 0.00 | 92 | 1030.7 |
| 20260510130237 | 1 | 231 | 3.2 | 3.2 | 0.00 | 0.00 | 0.00 | 94 | 1030.8 |
| 20260510125733 | 1 | 276 | 0.0 | 0.0 | 0.00 | 0.00 | 0.00 | 96 | 1031.0 |
| 20260510125230 | 1 | 268 | 0.0 | 0.0 | 0.00 | 0.00 | 0.00 | 97 | 1030.7 |
| 20260510124726 | 0 | 276 | 0.0 | 0.0 | 0.00 | 0.00 | 0.00 | 98 | 1030.7 |
| 20260510124224 | 0 | 276 | 0.0 | 0.0 | 0.00 | 0.00 | 0.00 | 98 | 1030.8 |
| 20260510123719 | 0 | 276 | 0.0 | 0.0 | 0.00 | 0.00 | 0.00 | 98 | 1030.8 |
| 20260510123215 | 0 | 275 | 0.0 | 0.0 | 0.00 | 0.00 | 0.00 | 98 | 1030.7 |
| 20260510122712 | 0 | 271 | 0.0 | 0.0 | 0.00 | 0.00 | 0.00 | 98 | 1030.7 |
| 20260510122208 | 0 | 243 | 0.0 | 0.0 | 0.00 | 0.00 | 0.00 | 98 | 1030.4 |
| 20260510121704 | 0 | 244 | 0.0 | 0.0 | 0.00 | 0.00 | 0.00 | 99 | 1030.4 |
| 20260510121202 | 0 | 239 | 0.0 | 0.0 | 0.00 | 0.00 | 0.00 | 99 | 1030.3 |
| 20260510120659 | 0 | 248 | 0.0 | 0.0 | 0.00 | 0.00 | 0.00 | 99 | 1030.4 |
| 20260510120155 | 0 | 250 | 0.0 | 0.0 | 0.00 | 0.00 | 0.00 | 99 | 1030.3 |
| 20260510115646 | 0 | 251 | 0.0 | 0.0 | 0.00 | 0.00 | 0.00 | 99 | 1030.4 |
| 20260510115144 | 0 | 251 | 0.0 | 0.0 | 0.00 | 0.00 | 0.00 | 99 | 1030.2 |
| 20260510114640 | 0 | 251 | 0.0 | 0.0 | 0.00 | 0.00 | 0.00 | 99 | 1030.0 |
| 20260510114137 | 0 | 248 | 0.0 | 0.0 | 0.00 | 0.00 | 0.00 | 99 | 1030.0 |
| 20260510113631 | 0 | 252 | 0.0 | 0.0 | 0.00 | 0.00 | 0.00 | 99 | 1030.0 |
| 20260510113129 | 0 | 252 | 0.0 | 0.0 | 0.00 | 0.00 | 0.00 | 99 | 1030.0 |
| 20260510112626 | 0 | 253 | 0.0 | 0.0 | 0.00 | 0.00 | 0.00 | 99 | 1029.9 |
| 20260510112122 | 0 | 253 | 0.0 | 0.0 | 0.00 | 0.00 | 0.00 | 99 | 1030.0 |
| 20260510111618 | 0 | 274 | 0.0 | 0.0 | 0.00 | 0.00 | 0.00 | 99 | 1029.9 |
| 20260510111114 | 0 | 275 | 0.0 | 0.0 | 0.00 | 0.00 | 0.00 | 99 | 1029.9 |
| 20260510110610 | 0 | 283 | 0.0 | 0.0 | 0.00 | 0.00 | 0.00 | 99 | 1029.8 |
| 20260510110108 | 0 | 275 | 0.0 | 0.0 | 0.00 | 0.00 | 0.00 | 99 | 1030.0 |
| 20260510105603 | 0 | 274 | 0.0 | 0.0 | 0.00 | 0.00 | 0.00 | 99 | 1029.8 |
| 20260510105057 | 0 | 276 | 0.0 | 0.0 | 0.00 | 0.00 | 0.00 | 99 | 1029.8 |
| 20260510104554 | 0 | 269 | 0.0 | 0.0 | 0.00 | 0.00 | 0.00 | 99 | 1029.6 |
| 20260510104051 | 0 | 255 | 0.0 | 0.0 | 0.00 | 0.00 | 0.00 | 99 | 1029.9 |
| 20260510103548 | 0 | 255 | 0.0 | 0.0 | 0.00 | 0.00 | 0.00 | 99 | 1029.5 |
| 20260510103044 | 0 | 261 | 0.0 | 0.0 | 0.00 | 0.00 | 0.00 | 99 | 1029.5 |
| 20260510102539 | 0 | 252 | 0.0 | 0.0 | 0.00 | 0.00 | 0.00 | 99 | 1029.4 |
| 20260510102036 | 0 | 251 | 0.0 | 0.0 | 0.00 | 0.00 | 0.00 | 99 | 1029.5 |
| 20260510101534 | 0 | 242 | 0.0 | 0.0 | 0.00 | 0.00 | 0.00 | 99 | 1029.5 |
| 20260510101032 | 0 | 261 | 0.0 | 0.0 | 0.00 | 0.00 | 0.00 | 99 | 1029.6 |
| 20260510100528 | 0 | 265 | 0.0 | 0.0 | 0.00 | 0.00 | 0.00 | 99 | 1029.9 |
| 20260510100025 | 0 | 266 | 0.0 | 0.0 | 0.00 | 0.00 | 0.00 | 99 | 1029.4 |
| 20260510095521 | 0 | 260 | 0.0 | 0.0 | 0.00 | 0.00 | 0.00 | 99 | 1029.3 |
| 20260510095020 | 0 | 261 | 0.0 | 0.0 | 0.00 | 0.00 | 0.00 | 99 | 1029.4 |
| 20260510094515 | 0 | 248 | 0.0 | 3.2 | 0.00 | 0.00 | 0.00 | 99 | 1029.1 |
| 20260510094011 | 0 | 255 | 0.0 | 1.6 | 0.00 | 0.00 | 0.00 | 99 | 1029.4 |
| 20260510093507 | 0 | 248 | 0.0 | 1.6 | 0.00 | 0.00 | 0.00 | 99 | 1029.3 |
| 20260510093004 | 0 | 251 | 0.0 | 1.6 | 0.00 | 0.00 | 0.00 | 99 | 1029.1 |
| 20260510092501 | 0 | 279 | 0.0 | 3.2 | 0.00 | 0.00 | 0.00 | 99 | 1029.1 |
| 20260510092000 | 0 | 242 | 0.0 | 0.0 | 0.00 | 0.00 | 0.00 | 99 | 1028.9 |
| 20260510091457 | 0 | 240 | 0.0 | 0.0 | 0.00 | 0.00 | 0.00 | 99 | 1029.1 |
| 20260510090953 | 0 | 242 | 0.0 | 0.0 | 0.00 | 0.00 | 0.00 | 99 | 1029.0 |
| 20260510090451 | 0 | 253 | 0.0 | 0.0 | 0.00 | 0.00 | 0.00 | 99 | 1029.0 |
| 20260510085946 | 0 | 256 | 0.0 | 0.0 | 0.00 | 0.00 | 0.00 | 98 | 1028.9 |
| 20260510085441 | 0 | 242 | 0.0 | 0.0 | 0.00 | 0.00 | 0.00 | 98 | 1028.7 |
| 20260510084937 | 0 | 277 | 1.6 | 1.6 | 0.00 | 0.00 | 0.00 | 98 | 1028.6 |
| 20260510084434 | 0 | 241 | 0.0 | 1.6 | 0.00 | 0.00 | 0.00 | 98 | 1028.7 |
| 20260510083931 | 0 | 257 | 0.0 | 3.2 | 0.00 | 0.00 | 0.00 | 98 | 1028.5 |
| 20260510083428 | 0 | 236 | 4.8 | 4.8 | 0.00 | 0.00 | 0.00 | 99 | 1028.5 |
| 20260510082923 | 0 | 221 | 3.2 | 4.8 | 0.00 | 0.00 | 0.00 | 99 | 1028.6 |
| 20260510082421 | 0 | 231 | 1.6 | 6.4 | 0.00 | 0.00 | 0.00 | 99 | 1028.7 |
| 20260510081919 | 0 | 231 | 1.6 | 3.2 | 0.00 | 0.00 | 0.00 | 99 | 1029.0 |
| 20260510081416 | 0 | 257 | 0.0 | 1.6 | 0.00 | 0.00 | 0.00 | 99 | 1028.7 |
| 20260510080912 | 0 | 253 | 0.0 | 0.0 | 0.00 | 0.00 | 0.00 | 99 | 1029.0 |
| 20260510080411 | 0 | 246 | 3.2 | 6.4 | 0.00 | 0.00 | 0.00 | 99 | 1028.9 |
| 20260510075908 | 0 | 232 | 4.8 | 6.4 | 0.00 | 0.00 | 0.00 | 99 | 1029.1 |
| 20260510075407 | 0 | 223 | 6.4 | 9.7 | 0.00 | 0.00 | 0.00 | 99 | 1029.0 |
| 20260510074903 | 0 | 249 | 1.6 | 6.4 | 0.00 | 0.00 | 0.00 | 99 | 1029.0 |
| 20260510074400 | 0 | 233 | 3.2 | 6.4 | 0.00 | 0.00 | 0.00 | 99 | 1029.1 |
| 20260510073856 | 1 | 238 | 1.6 | 3.2 | 0.00 | 0.00 | 0.00 | 99 | 1029.1 |
| 20260510073352 | 1 | 245 | 3.2 | 3.2 | 0.00 | 0.00 | 0.00 | 99 | 1029.0 |
| 20260510072848 | 1 | 267 | 0.0 | 0.0 | 0.00 | 0.00 | 0.00 | 99 | 1029.4 |
| 20260510072345 | 1 | 267 | 0.0 | 0.0 | 0.00 | 0.00 | 0.00 | 99 | 1029.4 |
| 20260510071841 | 1 | 283 | 0.0 | 1.6 | 0.00 | 0.00 | 0.00 | 99 | 1029.6 |
| 20260510071337 | 1 | 276 | 0.0 | 1.6 | 0.00 | 0.00 | 0.00 | 99 | 1029.4 |
| 20260510070837 | 1 | 290 | 0.0 | 0.0 | 0.00 | 0.00 | 0.00 | 99 | 1029.4 |
| 20260510070332 | 1 | 271 | 0.0 | 0.0 | 0.00 | 0.00 | 0.00 | 99 | 1029.8 |
| 20260510065827 | 1 | 271 | 0.0 | 0.0 | 0.00 | 0.00 | 0.00 | 99 | 1029.6 |
| 20260510065324 | 1 | 264 | 0.0 | 0.0 | 0.00 | 0.00 | 0.00 | 99 | 1029.5 |
| 20260510064821 | 1 | 261 | 0.0 | 0.0 | 0.00 | 0.00 | 0.00 | 99 | 1029.6 |
| 20260510064319 | 1 | 250 | 0.0 | 0.0 | 0.00 | 0.00 | 0.00 | 99 | 1029.5 |
| 20260510063814 | 0 | 249 | 0.0 | 1.6 | 0.00 | 0.00 | 0.00 | 99 | 1029.6 |
| 20260510063311 | 1 | 245 | 1.6 | 3.2 | 0.00 | 0.00 | 0.00 | 99 | 1029.5 |
| 20260510062808 | 1 | 272 | 3.2 | 3.2 | 0.00 | 0.00 | 0.00 | 99 | 1029.8 |
| 20260510062306 | 1 | 236 | 3.2 | 3.2 | 0.00 | 0.00 | 0.00 | 99 | 1029.5 |
| 20260510061759 | 1 | 311 | 0.0 | 0.0 | 0.00 | 0.00 | 0.00 | 99 | 1029.5 |
| 20260510061256 | 1 | 248 | 0.0 | 4.8 | 0.00 | 0.00 | 0.00 | 99 | 1029.4 |
| 20260510060752 | 1 | 250 | 0.0 | 3.2 | 0.00 | 0.00 | 0.00 | 99 | 1029.1 |
| 20260510060249 | 1 | 230 | 1.6 | 4.8 | 0.00 | 0.00 | 0.00 | 99 | 1029.3 |
| 20260510055746 | 0 | 247 | 0.0 | 0.0 | 0.00 | 0.00 | 0.00 | 99 | 1029.5 |
| 20260510055244 | 0 | 274 | 0.0 | 1.6 | 0.00 | 0.00 | 0.00 | 99 | 1029.8 |
| 20260510054743 | 0 | 279 | 1.6 | 3.2 | 0.00 | 0.00 | 0.00 | 99 | 1029.6 |
| 20260510054240 | 0 | 273 | 0.0 | 4.8 | 0.00 | 0.00 | 0.00 | 99 | 1029.8 |
| 20260510053739 | 0 | 283 | 1.6 | 4.8 | 0.00 | 0.00 | 0.00 | 99 | 1029.5 |
| 20260510053236 | 0 | 309 | 1.6 | 6.4 | 0.00 | 0.00 | 0.00 | 99 | 1029.8 |
| 20260510052731 | 0 | 320 | 1.6 | 4.8 | 0.00 | 0.00 | 0.00 | 99 | 1029.8 |
| 20260510052228 | 0 | 275 | 0.0 | 1.6 | 0.00 | 0.00 | 0.00 | 99 | 1029.6 |
| 20260510051724 | 1 | 265 | 0.0 | 1.6 | 0.00 | 0.00 | 0.00 | 99 | 1029.8 |
| 20260510051220 | 0 | 342 | 1.6 | 3.2 | 0.00 | 0.00 | 0.00 | 99 | 1029.9 |
| 20260510050718 | 0 | 290 | 1.6 | 9.7 | 0.00 | 0.00 | 0.00 | 99 | 1029.9 |
| 20260510050215 | 0 | 276 | 1.6 | 3.2 | 0.00 | 0.00 | 0.00 | 99 | 1029.6 |
| 20260510045712 | 0 | 302 | 4.8 | 4.8 | 0.00 | 0.00 | 0.00 | 99 | 1029.5 |
| 20260510045208 | 0 | 30 | 4.8 | 9.7 | 0.00 | 0.00 | 0.00 | 99 | 1029.4 |
| 20260510044704 | 1 | 66 | 9.7 | 12.9 | 0.00 | 0.00 | 0.00 | 99 | 1029.4 |
| 20260510044202 | 1 | 299 | 4.8 | 11.3 | 0.00 | 0.00 | 0.00 | 99 | 1029.8 |
| 20260510043657 | 1 | 8 | 3.2 | 9.7 | 0.00 | 0.00 | 0.00 | 99 | 1029.8 |
| 20260510043154 | 1 | 343 | 1.6 | 3.2 | 0.00 | 0.00 | 0.00 | 99 | 1030.0 |
| 20260510042652 | 1 | 274 | 1.6 | 9.7 | 0.00 | 0.00 | 0.00 | 99 | 1030.2 |
| 20260510042148 | 1 | 249 | 0.0 | 6.4 | 0.00 | 0.00 | 0.00 | 99 | 1029.9 |
| 20260510041645 | 1 | 301 | 6.4 | 16.1 | 0.00 | 0.00 | 0.00 | 99 | 1030.2 |
| 20260510041142 | 1 | 278 | 1.6 | 6.4 | 0.00 | 0.00 | 0.00 | 99 | 1029.9 |
| 20260510040639 | 1 | 48 | 1.6 | 11.3 | 0.00 | 0.00 | 0.00 | 99 | 1029.6 |
| 20260510040136 | 1 | 324 | 6.4 | 12.9 | 0.00 | 0.00 | 0.00 | 98 | 1029.6 |
| 20260510035631 | 1 | 319 | 4.8 | 12.9 | 0.00 | 0.00 | 0.00 | 98 | 1029.5 |
| 20260510035126 | 1 | 285 | 4.8 | 11.3 | 0.00 | 0.00 | 0.00 | 98 | 1029.8 |
| 20260510034624 | 1 | 142 | 9.7 | 12.9 | 0.00 | 0.00 | 0.00 | 98 | 1029.5 |
| 20260510034121 | 1 | 300 | 8.0 | 12.9 | 0.00 | 0.00 | 0.00 | 98 | 1029.6 |
| 20260510033617 | 2 | 127 | 6.4 | 11.3 | 0.00 | 0.00 | 0.00 | 97 | 1029.4 |
| 20260510033115 | 2 | 267 | 3.2 | 6.4 | 0.00 | 0.00 | 0.00 | 97 | 1029.1 |
| 20260510032611 | 2 | 270 | 3.2 | 9.7 | 0.00 | 0.00 | 0.00 | 97 | 1029.3 |
| 20260510032106 | 2 | 286 | 3.2 | 6.4 | 0.00 | 0.00 | 0.00 | 96 | 1029.0 |
| 20260510031601 | 2 | 327 | 3.2 | 11.3 | 0.00 | 0.00 | 0.00 | 96 | 1029.3 |
| 20260510031058 | 2 | 338 | 3.2 | 4.8 | 0.00 | 0.00 | 0.00 | 97 | 1028.6 |
| 20260510030553 | 2 | 260 | 0.0 | 3.2 | 0.00 | 0.00 | 0.00 | 97 | 1028.7 |
| 20260510030051 | 2 | 241 | 1.6 | 3.2 | 0.00 | 0.00 | 0.00 | 97 | 1028.9 |
| 20260510025548 | 2 | 273 | 0.0 | 3.2 | 0.00 | 0.00 | 0.00 | 97 | 1029.0 |
| 20260510025046 | 2 | 282 | 4.8 | 6.4 | 0.00 | 0.00 | 0.00 | 97 | 1028.9 |
| 20260510024542 | 2 | 341 | 0.0 | 1.6 | 0.00 | 0.00 | 0.00 | 97 | 1028.5 |
| 20260510024038 | 2 | 295 | 1.6 | 9.7 | 0.00 | 0.00 | 0.00 | 97 | 1028.1 |
| 20260510023529 | 2 | 315 | 1.6 | 9.7 | 0.00 | 0.00 | 0.00 | 97 | 1027.7 |
| 20260510023027 | 2 | 333 | 11.3 | 17.7 | 0.00 | 0.00 | 0.00 | 96 | 1027.8 |
| 20260510022526 | 2 | 18 | 9.7 | 14.5 | 0.00 | 0.00 | 0.00 | 95 | 1027.3 |
| 20260510022025 | 2 | 348 | 6.4 | 22.5 | 0.00 | 0.00 | 0.00 | 94 | 1027.4 |
| 20260510021522 | 2 | 39 | 11.3 | 20.9 | 0.00 | 0.00 | 0.00 | 93 | 1027.1 |
| 20260510021021 | 2 | 40 | 8.0 | 12.9 | 0.00 | 0.00 | 0.00 | 91 | 1027.1 |
| 20260510020514 | 2 | 32 | 12.9 | 17.7 | 0.00 | 0.00 | 0.00 | 89 | 1026.8 |
| 20260510020010 | 3 | 356 | 8.0 | 14.5 | 0.00 | 0.00 | 0.00 | 87 | 1026.6 |
| 20260510015506 | 3 | 334 | 8.0 | 22.5 | 0.00 | 0.00 | 0.00 | 84 | 1026.5 |
| 20260510015001 | 4 | 271 | 9.7 | 22.5 | 0.00 | 0.00 | 0.00 | 82 | 1026.0 |
| 20260510014459 | 5 | 27 | 4.8 | 16.1 | 0.00 | 0.00 | 0.00 | 78 | 1026.0 |
| 20260510013955 | 5 | 349 | 4.8 | 11.3 | 0.00 | 0.00 | 0.00 | 74 | 1025.6 |
| 20260510013450 | 6 | 32 | 3.2 | 11.3 | 0.00 | 0.00 | 0.00 | 71 | 1025.4 |
| 20260510012946 | 7 | 356 | 8.0 | 20.9 | 0.00 | 0.00 | 0.00 | 67 | 1025.6 |
| 20260510012441 | 8 | 1 | 11.3 | 16.1 | 0.00 | 0.00 | 0.00 | 58 | 1025.3 |
| 20260510011937 | 11 | 349 | 9.7 | 12.9 | 0.00 | 0.00 | 0.00 | 21 | 1024.9 |
| 20260510011431 | 11 | 357 | 3.2 | 16.1 | 0.00 | 0.00 | 0.00 | 21 | 1024.8 |
| 20260510010927 | 12 | 343 | 1.6 | 12.9 | 0.00 | 0.00 | 0.00 | 23 | 1024.8 |
| 20260510010425 | 12 | 17 | 6.4 | 14.5 | 0.00 | 0.00 | 0.00 | 23 | 1024.6 |
| 20260510005922 | 12 | 329 | 12.9 | 16.1 | 0.00 | 0.00 | 0.00 | 22 | 1024.8 |
| 20260510005417 | 12 | 346 | 8.0 | 12.9 | 0.00 | 0.00 | 0.00 | 23 | 1024.8 |
| 20260510004915 | 12 | 303 | 11.3 | 24.1 | 0.00 | 0.00 | 0.00 | 22 | 1024.8 |
| 20260510004412 | 12 | 253 | 8.0 | 11.3 | 0.00 | 0.00 | 0.00 | 24 | 1024.4 |
| 20260510003910 | 12 | 345 | 8.0 | 16.1 | 0.00 | 0.00 | 0.00 | 24 | 1024.5 |
| 20260510003407 | 12 | 333 | 12.9 | 16.1 | 0.00 | 0.00 | 0.00 | 24 | 1024.4 |
| 20260510002906 | 12 | 21 | 9.7 | 14.5 | 0.00 | 0.00 | 0.00 | 25 | 1024.3 |
| 20260510002403 | 12 | 302 | 6.4 | 11.3 | 0.00 | 0.00 | 0.00 | 33 | 1024.3 |
| 20260510001900 | 12 | 328 | 9.7 | 11.3 | 0.00 | 0.00 | 0.00 | 33 | 1024.3 |
| 20260510001357 | 13 | 10 | 3.2 | 6.4 | 0.00 | 0.00 | 0.00 | 31 | 1024.0 |
| 20260510000854 | 13 | 341 | 11.3 | 16.1 | 0.00 | 0.00 | 0.00 | 29 | 1024.1 |
| 20260510000351 | 13 | 321 | 4.8 | 12.9 | 0.00 | 0.00 | 0.00 | 29 | 1024.3 |
| 20260509235847 | 12 | 15 | 3.2 | 12.9 | 0.00 | 0.00 | 0.00 | 30 | 1024.0 |
| 20260509235344 | 12 | 26 | 3.2 | 6.4 | 0.00 | 0.00 | 0.00 | 34 | 1024.1 |
| 20260509234840 | 12 | 356 | 3.2 | 4.8 | 0.00 | 0.00 | 0.00 | 34 | 1024.0 |
| 20260509234337 | 12 | 87 | 3.2 | 4.8 | 0.00 | 0.00 | 0.00 | 32 | 1023.6 |
| 20260509233836 | 13 | 251 | 1.6 | 6.4 | 0.00 | 0.00 | 0.00 | 34 | 1023.6 |
| 20260509233333 | 13 | 263 | 0.0 | 4.8 | 0.00 | 0.00 | 0.00 | 32 | 1023.7 |
| 20260509232828 | 13 | 333 | 4.8 | 14.5 | 0.00 | 0.00 | 0.00 | 34 | 1023.6 |
| 20260509232326 | 13 | 36 | 3.2 | 11.3 | 0.00 | 0.00 | 0.00 | 34 | 1023.6 |
| 20260509231822 | 13 | 309 | 3.2 | 9.7 | 0.00 | 0.00 | 0.00 | 32 | 1023.5 |
| 20260509231319 | 13 | 8 | 3.2 | 11.3 | 0.00 | 0.00 | 0.00 | 32 | 1023.7 |
| 20260509230817 | 13 | 312 | 4.8 | 11.3 | 0.00 | 0.00 | 0.00 | 29 | 1023.7 |
| 20260509230314 | 12 | 32 | 1.6 | 9.7 | 0.00 | 0.00 | 0.00 | 34 | 1023.6 |
| 20260509225808 | 12 | 284 | 1.6 | 9.7 | 0.00 | 0.00 | 0.00 | 34 | 1023.5 |
| 20260509225306 | 12 | 110 | 4.8 | 9.7 | 0.00 | 0.00 | 0.00 | 33 | 1023.3 |
| 20260509224801 | 12 | 348 | 6.4 | 11.3 | 0.00 | 0.00 | 0.00 | 34 | 1023.5 |
| 20260509224258 | 12 | 262 | 0.0 | 3.2 | 0.00 | 0.00 | 0.00 | 34 | 1023.3 |
| 20260509223755 | 13 | 249 | 4.8 | 11.3 | 0.00 | 0.00 | 0.00 | 34 | 1024.0 |
| 20260509223252 | 13 | 263 | 0.0 | 0.0 | 0.00 | 0.00 | 0.00 | 35 | 1023.7 |
| 20260509222749 | 12 | 266 | 1.6 | 6.4 | 0.00 | 0.00 | 0.00 | 35 | 1023.9 |
| 20260509222244 | 13 | 35 | 8.0 | 11.3 | 0.00 | 0.00 | 0.00 | 34 | 1023.3 |
| 20260509221740 | 13 | 296 | 3.2 | 4.8 | 0.00 | 0.00 | 0.00 | 33 | 1023.5 |
| 20260509221237 | 14 | 335 | 3.2 | 17.7 | 0.00 | 0.00 | 0.00 | 32 | 1023.5 |
| 20260509220732 | 14 | 31 | 6.4 | 14.5 | 0.00 | 0.00 | 0.00 | 28 | 1023.6 |
| 20260509220229 | 16 | 290 | 9.7 | 14.5 | 0.00 | 0.00 | 0.00 | 21 | 1023.5 |
| 20260509215725 | 14 | 62 | 6.4 | 22.5 | 0.00 | 0.00 | 0.00 | 25 | 1023.6 |
| 20260509215221 | 13 | 283 | 8.0 | 12.9 | 0.00 | 0.00 | 0.00 | 26 | 1023.3 |
| 20260509214719 | 13 | 273 | 1.6 | 3.2 | 0.00 | 0.00 | 0.00 | 25 | 1023.6 |
| 20260509214215 | 13 | 291 | 3.2 | 3.2 | 0.00 | 0.00 | 0.00 | 24 | 1023.6 |
| 20260509213713 | 13 | 260 | 3.2 | 9.7 | 0.00 | 0.00 | 0.00 | 26 | 1023.6 |
| 20260509213208 | 13 | 266 | 9.7 | 16.1 | 0.00 | 0.00 | 0.00 | 23 | 1024.0 |
| 20260509212706 | 15 | 280 | 9.7 | 16.1 | 0.00 | 0.00 | 0.00 | 23 | 1023.6 |
| 20260509212203 | 15 | 13 | 9.7 | 17.7 | 0.00 | 0.00 | 0.00 | 24 | 1023.6 |
| 20260509211658 | 16 | 347 | 4.8 | 11.3 | 0.00 | 0.00 | 0.00 | 23 | 1023.6 |
| 20260509211155 | 15 | 33 | 6.4 | 20.9 | 0.00 | 0.00 | 0.00 | 23 | 1023.6 |
| 20260509210652 | 15 | 247 | 4.8 | 12.9 | 0.00 | 0.00 | 0.00 | 25 | 1023.6 |
| 20260509210144 | 14 | 299 | 11.3 | 16.1 | 0.00 | 0.00 | 0.00 | 25 | 1023.9 |
| 20260509205639 | 14 | 284 | 9.7 | 22.5 | 0.00 | 0.00 | 0.00 | 24 | 1023.7 |
| 20260509205138 | 15 | 255 | 9.7 | 24.1 | 0.00 | 0.00 | 0.00 | 25 | 1023.6 |
| 20260509204635 | 15 | 291 | 6.4 | 17.7 | 0.00 | 0.00 | 0.00 | 24 | 1023.7 |
| 20260509204131 | 15 | 310 | 11.3 | 16.1 | 0.00 | 0.00 | 0.00 | 25 | 1023.5 |
| 20260509203627 | 15 | 327 | 9.7 | 27.4 | 0.00 | 0.00 | 0.00 | 24 | 1023.6 |
| 20260509203120 | 15 | 246 | 9.7 | 12.9 | 0.00 | 0.00 | 0.00 | 24 | 1023.5 |
| 20260509202619 | 15 | 333 | 12.9 | 17.7 | 0.00 | 0.00 | 0.00 | 25 | 1023.7 |
| 20260509202116 | 16 | 303 | 4.8 | 9.7 | 0.00 | 0.00 | 0.00 | 26 | 1023.5 |
| 20260509201615 | 15 | 347 | 9.7 | 14.5 | 0.00 | 0.00 | 0.00 | 24 | 1023.9 |
| 20260509201114 | 15 | 284 | 9.7 | 17.7 | 0.00 | 0.00 | 0.00 | 26 | 1023.9 |
| 20260509200615 | 15 | 258 | 6.4 | 16.1 | 0.00 | 0.00 | 0.00 | 25 | 1023.9 |
| 20260509200105 | 15 | 276 | 8.0 | 22.5 | 0.00 | 0.00 | 0.00 | 24 | 1023.6 |
| 20260509195601 | 15 | 46 | 3.2 | 11.3 | 0.00 | 0.00 | 0.00 | 25 | 1023.5 |
| 20260509195055 | 15 | 8 | 9.7 | 14.5 | 0.00 | 0.00 | 0.00 | 25 | 1023.9 |
| 20260509194555 | 15 | 210 | 14.5 | 17.7 | 0.00 | 0.00 | 0.00 | 24 | 1023.9 |
| 20260509194053 | 15 | 254 | 9.7 | 17.7 | 0.00 | 0.00 | 0.00 | 23 | 1023.9 |
| 20260509193548 | 15 | 264 | 9.7 | 14.5 | 0.00 | 0.00 | 0.00 | 24 | 1023.9 |
| 20260509193044 | 15 | 329 | 17.7 | 20.9 | 0.00 | 0.00 | 0.00 | 23 | 1023.7 |
| 20260509192541 | 14 | 276 | 20.9 | 25.7 | 0.00 | 0.00 | 0.00 | 24 | 1024.1 |